Time,TemperatureF,DewpointF,PressureIn,WindDirection,WindDirectionDegrees,WindSpeedMPH,WindSpeedGustMPH,Humidity,HourlyPrecipIn,Conditions,Clouds,dailyrainin,SoftwareType,DateUTC
2013-09-06 00:05:00,63.3,48.0,30.10,NW,326,4.0,6.0,57,0.00,,,0.00,weatherlink.com 1.10,2013-09-06 04:05:00,
2013-09-06 00:20:00,62.8,47.0,30.10,NNW,335,4.0,8.0,57,0.00,,,0.00,weatherlink.com 1.10,2013-09-06 04:20:00,
2013-09-06 00:35:00,62.7,47.0,30.11,NNW,340,4.0,9.0,58,0.00,,,0.00,weatherlink.com 1.10,2013-09-06 04:35:00,
2013-09-06 00:50:00,62.3,46.0,30.11,NNW,333,6.0,8.0,56,0.00,,,0.00,weatherlink.com 1.10,2013-09-06 04:50:00,
2013-09-06 01:05:00,62.0,47.0,30.12,NNW,330,9.0,11.0,58,0.00,,,0.00,weatherlink.com 1.10,2013-09-06 05:05:00,
2013-09-06 01:21:00,61.9,47.0,30.12,North,354,9.0,13.0,58,0.00,,,0.00,weatherlink.com 1.10,2013-09-06 05:21:00,
2013-09-06 01:36:00,61.7,46.0,30.12,NNW,340,9.0,13.0,57,0.00,,,0.00,weatherlink.com 1.10,2013-09-06 05:36:00,
2013-09-06 01:51:00,61.4,45.0,30.12,NW,314,7.0,12.0,56,0.00,,,0.00,weatherlink.com 1.10,2013-09-06 05:51:00,
2013-09-06 02:06:00,61.0,45.0,30.12,NW,313,5.0,10.0,57,0.00,,,0.00,weatherlink.com 1.10,2013-09-06 06:06:00,
2013-09-06 02:21:00,60.6,45.0,30.12,NNW,335,9.0,12.0,57,0.00,,,0.00,weatherlink.com 1.10,2013-09-06 06:21:00,
2013-09-06 02:36:00,60.2,46.0,30.12,NNW,330,4.0,13.0,60,0.00,,,0.00,weatherlink.com 1.10,2013-09-06 06:36:00,
2013-09-06 02:51:00,60.1,46.0,30.12,NW,325,10.0,13.0,59,0.00,,,0.00,weatherlink.com 1.10,2013-09-06 06:51:00,
2013-09-06 03:06:00,59.7,45.0,30.12,NW,323,10.0,13.0,59,0.00,,,0.00,weatherlink.com 1.10,2013-09-06 07:06:00,
2013-09-06 03:21:00,59.7,45.0,30.12,NW,314,11.0,14.0,59,0.00,,,0.00,weatherlink.com 1.10,2013-09-06 07:21:00,
2013-09-06 03:36:00,59.3,45.0,30.13,NW,321,14.0,14.0,60,0.00,,,0.00,weatherlink.com 1.10,2013-09-06 07:36:00,
2013-09-06 03:51:00,58.8,45.0,30.12,NNW,333,5.0,15.0,61,0.00,,,0.00,weatherlink.com 1.10,2013-09-06 07:51:00,
2013-09-06 04:06:00,58.3,45.0,30.13,NNW,346,4.0,13.0,62,0.00,,,0.00,weatherlink.com 1.10,2013-09-06 08:06:00,
2013-09-06 04:21:00,57.8,45.0,30.14,NNW,332,5.0,12.0,63,0.00,,,0.00,weatherlink.com 1.10,2013-09-06 08:21:00,
2013-09-06 04:36:00,57.7,45.0,30.14,North,1,5.0,10.0,64,0.00,,,0.00,weatherlink.com 1.10,2013-09-06 08:36:00,
2013-09-06 04:51:00,57.6,45.0,30.14,NNW,335,6.0,10.0,64,0.00,,,0.00,weatherlink.com 1.10,2013-09-06 08:51:00,
2013-09-06 05:06:00,57.7,45.0,30.15,NNW,328,4.0,10.0,64,0.00,,,0.00,weatherlink.com 1.10,2013-09-06 09:06:00,
2013-09-06 05:21:00,57.8,46.0,30.15,North,349,8.0,12.0,64,0.00,,,0.00,weatherlink.com 1.10,2013-09-06 09:21:00,
2013-09-06 05:36:00,58.0,46.0,30.15,NNW,335,3.0,13.0,64,0.00,,,0.00,weatherlink.com 1.10,2013-09-06 09:36:00,
2013-09-06 05:51:00,57.7,45.0,30.16,NNW,328,10.0,14.0,64,0.00,,,0.00,weatherlink.com 1.10,2013-09-06 09:51:00,
2013-09-06 06:06:00,57.3,46.0,30.16,NW,319,7.0,10.0,67,0.00,,,0.00,weatherlink.com 1.10,2013-09-06 10:06:00,
2013-09-06 06:21:00,56.5,47.0,30.17,NW,323,5.0,8.0,71,0.00,,,0.00,weatherlink.com 1.10,2013-09-06 10:21:00,
2013-09-06 06:36:00,55.3,46.0,30.17,NW,325,6.0,8.0,71,0.00,,,0.00,weatherlink.com 1.10,2013-09-06 10:36:00,
2013-09-06 06:51:00,55.4,47.0,30.17,NW,311,3.0,7.0,73,0.00,,,0.00,weatherlink.com 1.10,2013-09-06 10:51:00,
2013-09-06 07:06:00,55.8,46.0,30.17,NW,326,5.0,8.0,70,0.00,,,0.00,weatherlink.com 1.10,2013-09-06 11:06:00,
2013-09-06 07:21:00,56.7,47.0,30.18,North,8,6.0,7.0,70,0.00,,,0.00,weatherlink.com 1.10,2013-09-06 11:21:00,
2013-09-06 07:36:00,56.6,46.0,30.18,North,354,5.0,10.0,68,0.00,,,0.00,weatherlink.com 1.10,2013-09-06 11:36:00,
2013-09-06 07:51:00,56.6,46.0,30.19,NW,319,5.0,9.0,67,0.00,,,0.00,weatherlink.com 1.10,2013-09-06 11:51:00,
2013-09-06 08:06:00,57.2,46.0,30.20,NNW,338,2.0,6.0,66,0.00,,,0.00,weatherlink.com 1.10,2013-09-06 12:06:00,
2013-09-06 08:21:00,58.8,46.0,30.19,NNE,20,10.0,10.0,62,0.00,,,0.00,weatherlink.com 1.10,2013-09-06 12:21:00,
2013-09-06 08:36:00,59.5,44.0,30.20,North,9,9.0,12.0,58,0.00,,,0.00,weatherlink.com 1.10,2013-09-06 12:36:00,
2013-09-06 08:52:00,60.2,45.0,30.20,North,11,10.0,12.0,58,0.00,,,0.00,weatherlink.com 1.10,2013-09-06 12:52:00,
2013-09-06 09:07:00,60.5,45.0,30.20,NNE,22,11.0,15.0,58,0.00,,,0.00,weatherlink.com 1.10,2013-09-06 13:07:00,
2013-09-06 09:22:00,61.2,46.0,30.20,NNE,32,7.0,12.0,58,0.00,,,0.00,weatherlink.com 1.10,2013-09-06 13:22:00,
2013-09-06 09:37:00,60.7,45.0,30.20,NNE,15,7.0,13.0,57,0.00,,,0.00,weatherlink.com 1.10,2013-09-06 13:37:00,
2013-09-06 09:53:00,60.8,46.0,30.20,NNE,32,6.0,12.0,59,0.00,,,0.00,weatherlink.com 1.10,2013-09-06 13:53:00,
2013-09-06 10:07:00,61.3,46.0,30.20,NNE,25,9.0,14.0,57,0.00,,,0.00,weatherlink.com 1.10,2013-09-06 14:07:00,
2013-09-06 10:22:00,61.4,45.0,30.20,NNE,17,8.0,12.0,56,0.00,,,0.00,weatherlink.com 1.10,2013-09-06 14:22:00,
2013-09-06 10:37:00,62.0,44.0,30.20,NNW,342,7.0,11.0,52,0.00,,,0.00,weatherlink.com 1.10,2013-09-06 14:37:00,
2013-09-06 10:52:00,62.3,45.0,30.20,NNE,28,6.0,12.0,53,0.00,,,0.00,weatherlink.com 1.10,2013-09-06 14:52:00,
2013-09-06 11:07:00,62.5,44.0,30.20,NE,34,7.0,10.0,52,0.00,,,0.00,weatherlink.com 1.10,2013-09-06 15:07:00,
2013-09-06 11:22:00,62.8,43.0,30.20,NE,55,7.0,10.0,49,0.00,,,0.00,weatherlink.com 1.10,2013-09-06 15:22:00,
2013-09-06 11:37:00,63.1,43.0,30.21,ENE,65,2.0,7.0,49,0.00,,,0.00,weatherlink.com 1.10,2013-09-06 15:37:00,
2013-09-06 11:52:00,63.5,45.0,30.20,NE,41,7.0,9.0,52,0.00,,,0.00,weatherlink.com 1.10,2013-09-06 15:52:00,
2013-09-06 12:07:00,63.9,45.0,30.20,NE,41,7.0,9.0,50,0.00,,,0.00,weatherlink.com 1.10,2013-09-06 16:07:00,
2013-09-06 12:22:00,64.1,45.0,30.20,NE,45,4.0,8.0,51,0.00,,,0.00,weatherlink.com 1.10,2013-09-06 16:22:00,
2013-09-06 12:37:00,64.4,45.0,30.19,NNE,18,5.0,10.0,49,0.00,,,0.00,weatherlink.com 1.10,2013-09-06 16:37:00,
2013-09-06 12:52:00,65.0,46.0,30.18,NE,34,6.0,7.0,51,0.00,,,0.00,weatherlink.com 1.10,2013-09-06 16:52:00,
2013-09-06 13:07:00,65.1,44.0,30.18,ESE,105,3.0,8.0,47,0.00,,,0.00,weatherlink.com 1.10,2013-09-06 17:07:00,
2013-09-06 13:22:00,65.5,45.0,30.18,NE,34,3.0,8.0,47,0.00,,,0.00,weatherlink.com 1.10,2013-09-06 17:22:00,
2013-09-06 13:37:00,65.7,45.0,30.18,SE,141,1.0,8.0,47,0.00,,,0.00,weatherlink.com 1.10,2013-09-06 17:37:00,
2013-09-06 13:52:00,65.8,45.0,30.17,ESE,103,2.0,10.0,47,0.00,,,0.00,weatherlink.com 1.10,2013-09-06 17:52:00,
2013-09-06 14:07:00,66.0,44.0,30.17,NE,53,3.0,8.0,46,0.00,,,0.00,weatherlink.com 1.10,2013-09-06 18:07:00,
2013-09-06 14:22:00,66.7,46.0,30.16,ENE,65,0.0,7.0,47,0.00,,,0.00,weatherlink.com 1.10,2013-09-06 18:22:00,
2013-09-06 14:37:00,66.9,45.0,30.16,East,84,2.0,8.0,46,0.00,,,0.00,weatherlink.com 1.10,2013-09-06 18:37:00,
2013-09-06 14:52:00,67.7,47.0,30.15,NE,56,2.0,8.0,47,0.00,,,0.00,weatherlink.com 1.10,2013-09-06 18:52:00,
2013-09-06 15:07:00,67.5,45.0,30.14,ESE,119,2.0,8.0,44,0.00,,,0.00,weatherlink.com 1.10,2013-09-06 19:07:00,
2013-09-06 15:22:00,67.6,44.0,30.13,ENE,72,6.0,7.0,43,0.00,,,0.00,weatherlink.com 1.10,2013-09-06 19:22:00,
2013-09-06 15:37:00,67.8,43.0,30.13,ESE,104,7.0,9.0,41,0.00,,,0.00,weatherlink.com 1.10,2013-09-06 19:37:00,
2013-09-06 15:52:00,67.9,44.0,30.12,ENE,68,5.0,9.0,42,0.00,,,0.00,weatherlink.com 1.10,2013-09-06 19:52:00,
2013-09-06 16:07:00,68.4,44.0,30.11,East,100,6.0,7.0,41,0.00,,,0.00,weatherlink.com 1.10,2013-09-06 20:07:00,
2013-09-06 16:22:00,68.4,43.0,30.11,ENE,67,7.0,9.0,40,0.00,,,0.00,weatherlink.com 1.10,2013-09-06 20:22:00,
2013-09-06 16:37:00,68.7,42.0,30.11,East,98,3.0,7.0,38,0.00,,,0.00,weatherlink.com 1.10,2013-09-06 20:37:00,
2013-09-06 16:52:00,69.0,42.0,30.11,SSE,155,1.0,7.0,38,0.00,,,0.00,weatherlink.com 1.10,2013-09-06 20:52:00,
2013-09-06 17:07:00,69.3,42.0,30.10,ESE,113,2.0,7.0,38,0.00,,,0.00,weatherlink.com 1.10,2013-09-06 21:07:00,
2013-09-06 17:22:00,69.8,44.0,30.10,ESE,111,3.0,6.0,39,0.00,,,0.00,weatherlink.com 1.10,2013-09-06 21:22:00,
2013-09-06 17:37:00,70.1,43.0,30.10,SW,215,3.0,6.0,38,0.00,,,0.00,weatherlink.com 1.10,2013-09-06 21:37:00,
2013-09-06 17:52:00,70.3,43.0,30.10,ENE,76,4.0,4.0,37,0.00,,,0.00,weatherlink.com 1.10,2013-09-06 21:52:00,
2013-09-06 18:07:00,70.2,45.0,30.10,ENE,76,2.0,4.0,41,0.00,,,0.00,weatherlink.com 1.10,2013-09-06 22:07:00,
2013-09-06 18:22:00,70.3,44.0,30.10,NE,51,3.0,4.0,39,0.00,,,0.00,weatherlink.com 1.10,2013-09-06 22:22:00,
2013-09-06 18:37:00,69.8,48.0,30.10,SSE,154,4.0,6.0,46,0.00,,,0.00,weatherlink.com 1.10,2013-09-06 22:37:00,
2013-09-06 18:52:00,69.1,49.0,30.10,SE,139,4.0,6.0,49,0.00,,,0.00,weatherlink.com 1.10,2013-09-06 22:52:00,
2013-09-06 19:07:00,68.5,48.0,30.10,SE,141,1.0,5.0,48,0.00,,,0.00,weatherlink.com 1.10,2013-09-06 23:07:00,
2013-09-06 19:22:00,67.3,48.0,30.10,SE,139,1.0,3.0,50,0.00,,,0.00,weatherlink.com 1.10,2013-09-06 23:22:00,
2013-09-06 19:37:00,66.8,48.0,30.10,SE,141,1.0,3.0,52,0.00,,,0.00,weatherlink.com 1.10,2013-09-06 23:37:00,
2013-09-06 19:52:00,66.2,48.0,30.10,SE,145,1.0,3.0,53,0.00,,,0.00,weatherlink.com 1.10,2013-09-06 23:52:00,
2013-09-06 20:07:00,66.2,49.0,30.10,SE,135,2.0,5.0,54,0.00,,,0.00,weatherlink.com 1.10,2013-09-07 00:07:00,
2013-09-06 20:22:00,65.9,49.0,30.10,SE,129,4.0,7.0,55,0.00,,,0.00,weatherlink.com 1.10,2013-09-07 00:22:00,
2013-09-06 20:37:00,65.3,50.0,30.11,SSE,147,1.0,5.0,58,0.00,,,0.00,weatherlink.com 1.10,2013-09-07 00:37:00,
2013-09-06 20:52:00,65.1,50.0,30.11,SE,134,1.0,4.0,59,0.00,,,0.00,weatherlink.com 1.10,2013-09-07 00:52:00,
2013-09-06 21:07:00,64.7,50.0,30.11,ESE,119,2.0,3.0,60,0.00,,,0.00,weatherlink.com 1.10,2013-09-07 01:07:00,
2013-09-06 21:22:00,64.5,50.0,30.11,SE,140,2.0,3.0,59,0.00,,,0.00,weatherlink.com 1.10,2013-09-07 01:22:00,
2013-09-06 21:37:00,64.3,49.0,30.10,SE,124,2.0,4.0,59,0.00,,,0.00,weatherlink.com 1.10,2013-09-07 01:37:00,
2013-09-06 21:52:00,64.3,50.0,30.09,SE,141,3.0,5.0,60,0.00,,,0.00,weatherlink.com 1.10,2013-09-07 01:52:00,
2013-09-06 22:07:00,64.4,51.0,30.10,South,176,2.0,4.0,62,0.00,,,0.00,weatherlink.com 1.10,2013-09-07 02:07:00,
2013-09-06 22:22:00,64.4,51.0,30.09,SE,139,3.0,5.0,62,0.00,,,0.00,weatherlink.com 1.10,2013-09-07 02:22:00,
2013-09-06 22:37:00,64.7,52.0,30.09,SSE,151,2.0,6.0,63,0.00,,,0.00,weatherlink.com 1.10,2013-09-07 02:37:00,
2013-09-06 22:52:00,64.5,52.0,30.09,SSE,153,3.0,5.0,64,0.00,,,0.00,weatherlink.com 1.10,2013-09-07 02:52:00,
2013-09-06 23:07:00,64.7,52.0,30.09,SSW,202,2.0,6.0,63,0.00,,,0.00,weatherlink.com 1.10,2013-09-07 03:07:00,
2013-09-06 23:22:00,65.1,52.0,30.09,South,186,4.0,6.0,63,0.00,,,0.00,weatherlink.com 1.10,2013-09-07 03:22:00,
2013-09-06 23:37:00,65.2,52.0,30.08,SSE,161,3.0,8.0,63,0.00,,,0.00,weatherlink.com 1.10,2013-09-07 03:37:00,
2013-09-06 23:52:00,65.4,52.0,30.08,SW,214,8.0,9.0,63,0.00,,,0.00,weatherlink.com 1.10,2013-09-07 03:52:00,